Regional Weather Roundup
Issued by NWS

Home | Current Version | Previous Version | Text Only | Print | Product List | Glossary Off
Versions: 1 2 3 4 5 6 7 8 9 10 11 12 13 14 15 16 17 18 19 20 21 22 23 24 25 26 27 28 29 30 31 32 33 34 35 36 37 38 39 40 41 42 43 44 45 46 47 48 49 50

363
ASUS43 KIND 220409
RWRIN

WEATHER ROUNDUP FOR INDIANA
NATIONAL WEATHER SERVICE INDIANAPOLIS IN
1100 PM EST SAT JAN 21 2017

NOTE: "FAIR" INDICATES FEW OR NO CLOUDS BELOW 12,000 FEET WITH NO
SIGNIFICANT WEATHER AND/OR OBSTRUCTIONS TO VISIBILITY.

* - STATION DOES NOT REPORT WEATHER SUCH AS PRECIPITATION OR FOG.

+ - STATION NOT QUALITY CONTROLLED BY THE NATIONAL WEATHER SERVICE.
    USE DATA WITH CAUTION...ESPECIALLY DEWPOINT AND RELATIVE
    HUMIDITY OBSERVATIONS.

INZ001>003-010>013-019-020-220500-
NORTHWEST INDIANA

CITY           SKY/WX    TMP DP  RH WIND       PRES   REMARKS
GARY /AIRPORT/ CLEAR     38  38 100 CALM      29.60R FOG
KNOX *+          N/A     41  36  81 CALM      29.59S VSB 1/2
LA PORTE +     FOG       38  38  99 CALM      29.60S VSB 1/4
MICHIGAN CITY+ FOG       41  41 100 CALM      29.60S VSB 1/4
MONTICELLO +   PTCLDY    46  45  95 CALM      29.59S
RENSSELAER +   FOG       45  45 100 CALM      29.60  VSB<1/4
VALPARAISO     CLEAR     44  44 100 CALM      29.60R FOG

$$

LMZ046-743>745-220500-
SOUTHERN LAKE MICHIGAN

STATION/POSITION TIME  TEMP    WIND        PRES    WAVE
                       AIR SEA DIR/SP/G            HT
                 (UTC) (F)     (DEG/KT/KT) (MB)    (FT)
BURNS HARBOR     0340   45     220/  3/  3 1003.0R
MICHIGAN CITY    0340   52     220/  4/  4   N/A

$$

INZ004-005-014>016-021>024-220500-
NORTH CENTRAL INDIANA

CITY           SKY/WX    TMP DP  RH WIND       PRES   REMARKS
GOSHEN         FOG       39  38  96 CALM      29.60R VSB 1/4
LOGANSPORT +   CLOUDY    46  45  93 CALM      29.61S
PERU/GRISSOM   PTCLDY    49  49 100 S7        29.59R
ROCHESTER +    FOG       45  45 100 CALM      29.61R VSB 1/2
SOUTH BEND     CLEAR     42  42 100 CALM      29.61R
WARSAW +       FOG       46  45  93 CALM      29.61R VSB 1/4

$$

INZ006>009-017-018-025>027-220500-
NORTHEAST INDIANA

CITY           SKY/WX    TMP DP  RH WIND       PRES   REMARKS
ANGOLA *+      CLOUDY    45  39  81 CALM      29.62R VSB 1/4
AUBURN +       PTCLDY    50  46  87 CALM      29.63R FOG
FORT WAYNE     CLOUDY    51  49  92 S7        29.62S
HUNTINGTON +   PTCLDY    51  50  95 CALM      29.61S
KENDALLVILLE + CLOUDY    49  49 100 S6        29.62R FOG

$$

INZ028-029-035-036-043>045-051>053-220500-
WEST CENTRAL INDIANA

CITY           SKY/WX    TMP DP  RH WIND       PRES   REMARKS
CRAWFORDSVL +  MOCLDY    49  49 100 S6        29.60S
GREENCASTLE +  CLOUDY    52  50  93 CALM      29.61S
LAFAYETTE      MOCLDY    47  47 100 NE3       29.59S
TERRE HAUTE    CLOUDY    51  48  89 CALM      29.60R

$$

INZ030>032-037>040-046>048-054>057-064-065-220500-
CENTRAL INDIANA

CITY           SKY/WX    TMP DP  RH WIND       PRES   REMARKS
CP ATTERBURY + PTCLDY    52  46  82 E3        29.63S
FISHERS *+     MOCLDY    54  52  94 SE6       29.62S
FRANKFORT +    CLOUDY    53  51  93 CALM      29.62R
GREENWOOD *+   CLOUDY    56  51  84 SE7       29.63S
INDIANAPOLIS   CLOUDY    54  49  83 SE8       29.61S
-EAGLE CREEK   CLOUDY    54  48  80 SE3       29.61R
KOKOMO +       TSTM      52  50  93 VRB3      29.62R
MARION +       CLOUDY    52  48  87 S5        29.62S
MT COMFORT *+  CLOUDY    54  50  87 S6        29.63R
SHELBYVILLE    CLOUDY    54  49  83 SE7       29.62S
ZIONSVILLE +   MOCLDY    49  47  93 SE6       29.62R

$$

INZ033-034-041-042-049-050-058-059-220500-
EAST CENTRAL INDIANA

CITY           SKY/WX    TMP DP  RH WIND       PRES   REMARKS
MUNCIE         CLOUDY    56  51  84 S8        29.63R

$$

INZ060-061-067>069-081>083-085>088-220500-
SOUTHWEST INDIANA

CITY           SKY/WX    TMP DP  RH WIND       PRES   REMARKS
EVANSVILLE     PTCLDY    55  48  77 CALM      29.60F
HUNTINGBURG *+ PTCLDY    57  48  72 S5          N/A
WASHINGTON +   CLEAR     50  48  94 CALM      29.61R

$$

INZ062-063-066-070>080-084-089>092-220500-
SOUTH CENTRAL AND SOUTHEAST INDIANA

CITY           SKY/WX    TMP DP  RH WIND       PRES   REMARKS
BLOOMINGTON    CLOUDY    55  48  77 SE5       29.61S
MADISON *+     CLOUDY    54  52  94 SE3       29.67R
NORTH VERNON + CLOUDY   N/A N/A N/A SE5       29.65R
SEYMOUR +      CLOUDY    54  50  87 SE3       29.63

$$





USA.gov is the U.S. government's official web portal to all federal, state and local government web resources and services.